Content
SEND FEEDBACK

Daily
Averages
Monthly
Summary
United States of America

ASHEVILLE, NORTH CAROLINA


Home > North America > United States > North Carolina
Elevation: 2240 feet     Latitude: 35 36N     Longitude: 082 32W

WEATHER
 
SELECT A DAY
Number of Records: 226,838;   Date Range: 1/1/95 - 9/20/14
 
SHARE

PRINT THIS DATA

[ ← Previous Day ]
WEATHER ALMANAC - JUNE 21, 2013
[ Next Day → ]
[ °C ]   °F
Weather ElementAverageHighLow
Temperature66.5 °F80.1 °F (3:54 pm)60.8 °F (4:02 am)
Dewpoint60.8 °F63 °F (1:54 am)57 °F (3:54 pm)
Humidity84.6 %100 % (4:02 am)45 % (3:54 pm)
Barometer30.26 in30.34 in (9:01 am)30.18 in (6:54 pm)
Wind Speed1.3 mph6.9 mph (1:54 pm)
Weather ElementAverage
Visibility5.8 mi
Wind DirectionNNE (36.3 °)

Weather ElementTotal
Precipitation---
Cooling Degree Days5.4 (Base 65)
Growing Degree Days20.5 (Base 50)
Averaged from 40 records on June 21, 2013
WEATHER CONDITIONS BREAKOUT
WIND DIRECTION BREAKOUT
WEATHER BY HOUR - JUNE 21, 2013
[ °C ]   °F
Local TimeTemperatureDewpointHumidityBarometerVisibilityWind DirectionWind SpeedGust SpeedPrecipitationEventsConditions
1:54 AM64.0 °F63.0 °F96 %30.23 in6.0 miCalmPartly Cloudy
2:54 AM64.0 °F62.1 °F93 %30.22 in6.0 miCalmClear
3:39 AM62.6 °F60.8 °F94 %30.29 in3.0 miCalmPartly Cloudy
3:46 AM62.6 °F60.8 °F94 %30.29 in2.5 miCalmPartly Cloudy
3:50 AM62.6 °F60.8 °F94 %30.29 in1.8 miCalmPartly Cloudy
3:52 AM62.6 °F60.8 °F94 %30.29 in1.0 miCalmMist
3:54 AM62.1 °F61.0 °F96 %30.22 in0.8 miCalmMist
4:02 AM60.8 °F60.8 °F100 %30.29 in1.2 miCalmPartly Cloudy
4:04 AM62.6 °F60.8 °F94 %30.29 in2.5 miCalmPartly Cloudy
4:11 AM62.6 °F60.8 °F94 %30.29 in5.0 miCalmMostly Cloudy
4:54 AM62.1 °F61.0 °F96 %30.22 in5.0 miCalmClear
5:17 AM62.6 °F60.8 °F94 %30.29 in5.0 miCalmMostly Cloudy
5:42 AM60.8 °F60.8 °F100 %30.30 in6.0 miCalmScattered Clouds
5:51 AM60.8 °F60.8 °F100 %30.30 in6.0 miCalmScattered Clouds
5:54 AM61.0 °F60.1 °F97 %30.24 in6.0 miCalmMostly Cloudy
6:08 AM60.8 °F60.8 °F100 %30.30 in5.0 miCalmMostly Cloudy
6:23 AM60.8 °F60.8 °F100 %30.31 in5.0 miCalmScattered Clouds
6:32 AM60.8 °F60.8 °F100 %30.31 in4.0 miCalmMostly Cloudy
6:41 AM60.8 °F60.8 °F100 %30.31 in0.2 miCalmFogFog
6:54 AM61.0 °F61.0 °F100 %30.25 in0.2 miCalmFogFog
7:35 AM60.8 °F60.8 °F100 %30.32 in0.2 miCalmFogFog
7:45 AM62.6 °F62.6 °F100 %30.33 in0.8 miCalmMist
7:54 AM62.1 °F62.1 °F100 %30.27 in0.5 miSSE (160°)3.5 mphFogFog
8:54 AM64.0 °F63.0 °F96 %30.28 in0.5 miSouth (180°)3.5 mphFogFog
9:01 AM64.4 °F62.6 °F94 %30.34 in6.0 miSE (140°)3.5 mphPartly Cloudy
9:54 AM68.0 °F62.1 °F81 %30.27 in10.0 miSouth (180°)5.8 mphMostly Cloudy
10:54 AM71.1 °F61.0 °F70 %30.27 in10.0 miSouth (170°)3.5 mphMostly Cloudy
11:54 AM73.0 °F61.0 °F66 %30.27 in10.0 miVariable3.5 mphScattered Clouds
12:54 PM75.0 °F61.0 °F62 %30.26 in10.0 miSSW (200°)3.5 mphMostly Cloudy
1:54 PM77.0 °F61.0 °F58 %30.25 in10.0 miSouth (170°)6.9 mphScattered Clouds
2:54 PM79.0 °F59.0 °F50 %30.22 in10.0 miVariable3.5 mphScattered Clouds
3:54 PM80.1 °F57.0 °F45 %30.21 in10.0 miCalmPartly Cloudy
4:54 PM80.1 °F57.0 °F45 %30.19 in10.0 miVariable3.5 mphClear
5:54 PM79.0 °F57.9 °F48 %30.19 in10.0 miVariable3.5 mphMostly Cloudy
6:54 PM78.1 °F57.0 °F48 %30.18 in10.0 miESE (110°)5.8 mphClear
7:54 PM75.0 °F61.0 °F62 %30.19 in10.0 miSE (140°)3.5 mphClear
8:54 PM73.0 °F61.0 °F66 %30.19 in10.0 miCalmClear
9:54 PM70.0 °F62.1 °F76 %30.21 in10.0 miCalm0.00 inClear
10:54 PM66.0 °F63.0 °F90 %30.24 in10.0 miCalmMostly Cloudy
11:54 PM64.9 °F62.1 °F90 %30.24 in10.0 miCalmPartly Cloudy
Hourly data recorded from KAVL, located miles away from Asheville, North Carolina







STORIES FROM OUR PARTNERS